Location: Dresden
(51.0483°N, 13.7137°E)
Time: 05:30:05
(UTC+01:00)

ISS - Pass Details

Date: 28 November 2017
Orbit: 403 x 407 km, 51.6° (Epoch: 12 December)

Event Time Altitude Azimuth Distance (km) Brightness Sun altitude
Rises 18:13:01 0° 209° (SSW) 2,320 0.6 -19.5°
Reaches altitude 10° 18:15:29 10° 190° (S) 1,463 -0.8 -19.9°
Enters shadow 18:16:44 16° 170° (S) 1,151 -1.6 -20.1°
